Big Rapids, MI

5:59 AM EDT on September 23, 2019 (GMT -0400)
Roben-Hood

Weather History for KRQB - July, 2019

Change the Weather History Date:

Tuesday, July 9, 2019

  Actual Average Record
Temperature  
Mean Temperature 74 °F -  
Max Temperature 83 °F 83 °F 97 °F (1988)
Min Temperature 64 °F 56 °F 44 °F (2004)
Cooling Degree Days 8    
Growing Degree Days 24 (Base 50)    
Moisture  
Dew Point 60 °F    
Average Humidity 56    
Maximum Humidity 87    
Minimum Humidity 44    
Precipitation  
Precipitation 0.00 in - - ()
Sea Level Pressure  
Sea Level Pressure 30.03 in    
Wind  
Wind Speed 5 mph (South)    
Max Wind Speed 10 mph    
Max Gust Speed 16 mph    
Visibility 10 miles    
Events      
Averages and records for this station are not official NWS values.
T = Trace of Precipitation, MM = Missing Value Source: NWS Daily Summary

Daily Weather History Graph

Daily Weather History Graph

Search for Another Location

Airport or City:

Astronomy

Jul. 09, 2019 Rise Set
Actual Time 6:09 AM EDT 9:25 PM EDT
Civil Twilight 5:33 AM EDT 10:00 PM EDT
Nautical Twilight 4:47 AM EDT 10:45 PM EDT
Astronomical Twilight 3:51 AM EDT 11:41 PM EDT
Moon 2:11 PM EDT (7/9) 1:30 AM EDT (7/9)
Length of Visible Light 16h 26m
Length of Day
15h 15m
First Quarter, 52% of the Moon is Illuminated
Jul 9
First Quarter
Jul 16
Full
Jul 24
Last Quarter
Jul 31
New
Aug 7
First Quarter

Hourly Weather History & Observations

Time (EDT) Temp. Heat Index Dew Point Humidity Pressure Visibility Wind Dir Wind Speed Gust Speed Precip Events Conditions
11:15 AM 74.1 °F - 58.8 °F 59% 30.08 in 10.0 mi SE 4.6 mph - N/A   Clear
11:16 AM 74.1 °F - 58.8 °F 59% 30.08 in 10.0 mi South 8.1 mph - N/A   Clear
11:35 AM 75.2 °F - 59.2 °F 57% 30.08 in 10.0 mi South 8.1 mph - N/A   Clear
11:55 AM 76.5 °F - 59.4 °F 55% 30.08 in 10.0 mi SW 5.8 mph - N/A   Clear
11:59 AM 76.6 °F - 59.5 °F 55% 30.08 in 10.0 mi SSW 9.2 mph - N/A   Clear
12:16 PM 76.6 °F - 58.3 °F 53% 30.07 in 10.0 mi SSE 5.8 mph 16.1 mph N/A   Clear
12:35 PM 77.9 °F - 59.5 °F 53% 30.07 in 10.0 mi South 10.4 mph - N/A   Clear
12:36 PM 77.9 °F - 59.4 °F 53% 30.07 in 10.0 mi South 6.9 mph - N/A   Clear
12:55 PM 78.1 °F - 59.0 °F 52% 30.07 in 10.0 mi South 10.4 mph - N/A   Clear
1:00 PM 78.3 °F - 58.6 °F 51% 30.06 in 10.0 mi SSW 6.9 mph - N/A   Clear
1:18 PM 78.6 °F - 58.6 °F 50% 30.06 in 10.0 mi SSW 9.2 mph - N/A   Clear
1:35 PM 78.6 °F - 58.6 °F 50% 30.06 in 10.0 mi South 4.6 mph - N/A   Clear
1:36 PM 78.6 °F - 58.6 °F 50% 30.06 in 10.0 mi South 4.6 mph - N/A   Clear
1:55 PM 79.0 °F - 58.6 °F 50% 30.05 in 10.0 mi South 5.8 mph - N/A   Clear
2:15 PM 79.3 °F - 57.9 °F 48% 30.04 in 10.0 mi South 8.1 mph - N/A   Clear
2:38 PM 80.1 °F 80.5 °F 57.6 °F 46% 30.04 in 10.0 mi Calm Calm - N/A   Clear
2:56 PM 80.4 °F 80.7 °F 57.6 °F 45% 30.04 in 10.0 mi SSE 6.9 mph - N/A   Clear
3:15 PM 81.3 °F 81.4 °F 57.9 °F 45% 30.03 in 10.0 mi SSW 9.2 mph - N/A   Clear
3:16 PM 81.1 °F 81.3 °F 58.1 °F 45% 30.03 in 10.0 mi SSW 8.1 mph - N/A   Clear
3:35 PM 81.5 °F 81.6 °F 58.1 °F 45% 30.03 in 10.0 mi South 9.2 mph - N/A   Clear
3:59 PM 82.4 °F 82.3 °F 58.3 °F 44% 30.03 in 10.0 mi WSW 4.6 mph - N/A   Clear
4:17 PM 83.1 °F 83.0 °F 59.2 °F 44% 30.03 in 10.0 mi WSW 5.8 mph - N/A   Clear
4:35 PM 82.2 °F 82.4 °F 59.4 °F 46% 30.03 in 10.0 mi WSW 3.5 mph - N/A   Clear
4:36 PM 82.2 °F 82.4 °F 59.4 °F 46% 30.03 in 10.0 mi SW 4.6 mph - N/A   Clear
4:55 PM 82.0 °F 82.0 °F 57.9 °F 44% 30.03 in 10.0 mi Calm Calm - N/A   Scattered Clouds
5:18 PM 82.2 °F 82.4 °F 59.4 °F 46% 30.02 in 10.0 mi SSE 5.8 mph - N/A   Clear
5:36 PM 81.9 °F 82.1 °F 59.4 °F 46% 30.02 in 10.0 mi SW 5.8 mph - N/A   Clear
5:56 PM 81.7 °F 81.9 °F 59.0 °F 46% 30.02 in 10.0 mi South 4.6 mph - N/A   Clear
6:15 PM 82.2 °F 82.4 °F 59.5 °F 46% 30.01 in 10.0 mi SSE 4.6 mph - N/A   Clear
6:16 PM 82.2 °F 82.4 °F 59.7 °F 46% 30.01 in 10.0 mi SSE 4.6 mph - N/A   Clear
6:35 PM 81.5 °F 81.8 °F 59.7 °F 47% 30.01 in 10.0 mi South 5.8 mph - N/A   Clear
6:40 PM 81.3 °F 81.7 °F 59.4 °F 47% 30.01 in 10.0 mi SSE 4.6 mph - N/A   Clear
6:58 PM 81.3 °F 81.7 °F 59.4 °F 47% 30.01 in 10.0 mi South 3.5 mph - N/A   Clear
7:16 PM 80.8 °F 81.3 °F 59.5 °F 48% 30.01 in 10.0 mi South 4.6 mph - N/A   Clear
7:35 PM 80.6 °F 81.2 °F 59.9 °F 49% 30.01 in 10.0 mi Calm Calm - N/A   Clear
7:36 PM 80.6 °F 81.4 °F 60.3 °F 50% 30.01 in 10.0 mi Calm Calm - N/A   Clear
7:55 PM 79.7 °F - 59.4 °F 50% 30.01 in 10.0 mi South 3.5 mph - N/A   Clear
8:19 PM 78.8 °F - 60.6 °F 54% 30.01 in 10.0 mi SSE 4.6 mph - N/A   Clear
8:37 PM 77.5 °F - 60.6 °F 56% 30.00 in 10.0 mi SSE 3.5 mph - N/A   Clear
8:55 PM 76.3 °F - 60.8 °F 59% 30.00 in 10.0 mi South 4.6 mph - N/A   Clear
8:56 PM 76.3 °F - 60.8 °F 59% 30.01 in 10.0 mi South 4.6 mph - N/A   Clear
9:15 PM 75.2 °F - 60.1 °F 59% 30.00 in 10.0 mi SSE 3.5 mph - N/A   Clear
9:16 PM 75.2 °F - 60.1 °F 59% 30.00 in 10.0 mi SSE 3.5 mph - N/A   Clear
9:35 PM 73.6 °F - 60.8 °F 64% 30.00 in 10.0 mi Calm Calm - N/A   Clear
9:58 PM 70.7 °F - 61.3 °F 72% 30.00 in 10.0 mi Calm Calm - N/A   Clear
10:16 PM 70.2 °F - 61.2 °F 73% 30.00 in 10.0 mi Calm Calm - N/A   Clear
10:35 PM 68.9 °F - 61.3 °F 77% 30.00 in 10.0 mi Calm Calm - N/A   Clear
10:36 PM 68.7 °F - 61.2 °F 77% 30.00 in 10.0 mi Calm Calm - N/A   Clear
10:55 PM 67.8 °F - 61.3 °F 80% 30.00 in 10.0 mi Calm Calm - N/A   Clear
11:19 PM 66.9 °F - 61.2 °F 82% 29.99 in 10.0 mi Calm Calm - N/A   Clear
11:37 PM 65.8 °F - 61.3 °F 85% 29.99 in 10.0 mi Calm Calm - N/A   Clear
11:55 PM 64.9 °F - 61.0 °F 87% 29.99 in 10.0 mi West 4.6 mph - N/A   Clear
11:56 PM 64.9 °F - 61.0 °F 87% 29.99 in 10.0 mi West 3.5 mph - N/A   Clear